{"data":{"norad_id":65660,"epoch":"2026-09-20T13:33:07.144992Z","epoch_age_seconds":103139,"freshness":"FRESH","line1":"1 65660U 25211J   26263.56466603  .00010663  00000+0  33203-3 0  9998","line2":"2 65660  97.2841 303.8008 0000939 340.5357  19.5850 15.33456790 56536","mean_motion":15.3345679,"eccentricity":9.39e-5,"inclination_deg":97.2841,"raan_deg":303.8008,"arg_perigee_deg":340.5357,"mean_anomaly_deg":19.585,"bstar":0.00033203,"rev_number":5653,"period_min":93.90548265791,"perigee_km":464.86547768334,"apogee_km":466.15071423236,"semimajor_km":6843.6450959579,"source":"CELESTRAK","updated_at":"2026-09-21T09:00:35.680718Z"}}